Location: Unspecified
(50.8500°N, 5.6830°E)
Time: 18:28:54
(UTC+01:00)

ISS - Visible Passes

Search period start: 27 January 2021 00:00
Search period end: 06 February 2021 00:00
Orbit: 418 x 421 km, 51.6° (Epoch: 28 January)

Date Brightness Start Highest point End Pass type
(mag) Time Alt. Az. Time Alt. Az. Time Alt. Az.
27 Jan -3.7 17:59:24 10° WSW 18:02:47 81° SSE 18:06:10 10° ENE visible
27 Jan -3.4 19:36:17 10° W 19:39:13 62° WNW 19:39:13 62° WNW visible
28 Jan -3.8 18:48:55 10° W 18:52:19 75° N 18:53:50 30° E visible
28 Jan -0.9 20:25:47 10° WNW 20:26:49 18° W 20:26:49 18° W visible
29 Jan -3.7 18:01:33 10° W 18:04:56 78° N 18:08:20 10° E visible
29 Jan -3.5 19:38:26 10° WNW 19:41:27 67° W 19:41:27 67° W visible
30 Jan -3.8 18:51:05 10° W 18:54:29 85° NNE 18:56:07 28° E visible
30 Jan -0.9 20:27:59 10° W 20:29:06 18° W 20:29:06 18° W visible
31 Jan -3.7 18:03:41 10° W 18:07:05 77° N 18:10:29 10° E visible
31 Jan -3.1 19:40:33 10° W 19:43:49 50° SSW 19:43:49 50° SSW visible
01 Feb -3.5 18:53:09 10° WNW 18:56:31 66° SSW 18:58:37 21° ESE visible
01 Feb -0.8 20:30:30 10° W 20:31:36 15° WSW 20:31:36 15° WSW visible
02 Feb -3.7 18:05:46 10° WNW 18:09:09 82° SSW 18:12:33 10° ESE visible
02 Feb -1.9 19:42:48 10° W 19:45:42 26° SSW 19:46:30 23° S visible
03 Feb -2.3 18:55:16 10° W 18:58:25 36° SSW 19:01:32 10° SE visible
04 Feb -2.8 18:07:47 10° W 18:11:05 49° SSW 18:14:22 10° SE visible
04 Feb -0.8 19:45:48 10° WSW 19:47:18 12° SW 19:48:47 10° SSW visible
05 Feb -1.0 18:57:42 10° W 19:00:06 18° SW 19:02:29 10° S visible
